,

(GMT )
Al Udeid

Weather History for KQIR - November, 2012

Change the Weather History Date:

Friday, November 16, 2012

  Actual Average Record
Temperature  
Mean Temperature 76 °F -  
Max Temperature 85 °F - - ()
Min Temperature 67 °F - - ()
Cooling Degree Days 11    
Growing Degree Days 26 (Base 50)    
Moisture  
Dew Point 59 °F    
Average Humidity 57    
Maximum Humidity 72    
Minimum Humidity 38    
Precipitation  
Precipitation 0.00 in - - ()
Sea Level Pressure  
Sea Level Pressure 30.09 in    
Wind  
Wind Speed 11 mph ()    
Max Wind Speed 21 mph    
Max Gust Speed 21 mph    
Visibility 6.2 miles    
Events      
T = Trace of Precipitation, MM = Missing Value Source: Averaged Metar Reports

Daily Weather History Graph

Daily Weather History Graph

Search for Another Location

Airport or City:

Trip Planner

Search our weather history database for the weather conditions in past years. The results will help you decide how hot, cold, wet, or windy it might be!

Date:

Astronomy

Nov. 16, 2012 Rise Set
Actual Time 5:52 AM AST 4:46 PM AST
Civil Twilight 5:28 AM AST 5:10 PM AST
Nautical Twilight 5:00 AM AST 5:38 PM AST
Astronomical Twilight 4:33 AM AST 6:05 PM AST
Moon 8:18 AM AST (11/16) 7:23 PM AST (11/16)
Length of Visible Light 11h 42m
Length of Day
10h 53m
Waxing Crescent, 9% of the Moon is Illuminated
Nov 16
Waxing Crescent
Nov 20
First Quarter
Nov 28
Full
Dec 6
Last Quarter
Dec 13
New

Hourly Weather History & Observations

Time (AST) Temp. Heat Index Dew Point Humidity Pressure Visibility Wind Dir Wind Speed Gust Speed Precip Events Conditions
12:55 AM 72.1 °F - 60.6 °F 67% 30.01 in 6.2 mi NNW 13.8 mph - N/A   Clear
1:55 AM 72.1 °F - 60.1 °F 66% 30.01 in 6.2 mi NNW 15.0 mph - N/A   Clear
2:55 AM 70.9 °F - 58.8 °F 66% 30.02 in 6.2 mi NNW 12.7 mph - N/A   Clear
3:55 AM 69.8 °F - 58.8 °F 68% 30.04 in 6.2 mi NNW 11.5 mph - N/A   Clear
4:55 AM 69.4 °F - 58.6 °F 68% 30.06 in 6.2 mi NNW 10.4 mph - N/A   Clear
5:55 AM 67.3 °F - 57.9 °F 72% 30.09 in 6.2 mi NW 6.9 mph - N/A   Clear
6:55 AM 68.7 °F - 58.5 °F 70% 30.10 in 6.2 mi NW 4.6 mph - N/A   Clear
7:55 AM 74.3 °F - 59.9 °F 61% 30.12 in 6.2 mi NNW 11.5 mph - N/A   Clear
8:55 AM 78.4 °F - 60.3 °F 53% 30.12 in 6.2 mi NNW 20.7 mph - N/A   Clear
9:55 AM 80.6 °F 81.2 °F 59.7 °F 49% 30.11 in 6.2 mi NNW 19.6 mph - N/A   Clear
10:55 AM 82.4 °F 82.5 °F 59.2 °F 45% 30.10 in 6.2 mi NNW 16.1 mph - N/A   Clear
11:55 AM 83.7 °F 83.1 °F 57.7 °F 41% 30.08 in 6.2 mi North 11.5 mph - N/A   Clear
12:55 PM 83.8 °F 83.3 °F 57.9 °F 41% 30.07 in 6.2 mi North 11.5 mph 20.7 mph N/A   Clear
1:55 PM 85.3 °F 84.3 °F 56.7 °F 38% 30.06 in 6.2 mi NW 12.7 mph - N/A   Clear
2:55 PM 84.2 °F 83.3 °F 56.8 °F 39% 30.06 in 6.2 mi NNW 12.7 mph - N/A   Clear
3:55 PM 82.2 °F 82.0 °F 57.4 °F 43% 30.07 in 6.2 mi NNW 17.3 mph - N/A   Clear
4:55 PM 79.3 °F - 57.7 °F 47% 30.08 in 6.2 mi NNW 15.0 mph - N/A   Clear
5:55 PM 77.4 °F - 59.2 °F 53% 30.10 in 6.2 mi NNW 15.0 mph - N/A   Clear
6:55 PM 75.6 °F - 60.6 °F 60% 30.12 in 6.2 mi NNW 13.8 mph - N/A   Clear
7:55 PM 74.1 °F - 60.4 °F 62% 30.13 in 6.2 mi NNW 10.4 mph - N/A   Clear
8:55 PM 72.3 °F - 59.4 °F 64% 30.14 in 6.2 mi NNW 6.9 mph - N/A   Clear
9:55 PM 71.6 °F - 59.4 °F 65% 30.13 in 6.2 mi NNW 8.1 mph - N/A   Clear
10:55 PM 69.8 °F - 58.6 °F 68% 30.12 in 6.2 mi Calm Calm - N/A   Clear
11:55 PM 68.5 °F - 57.9 °F 69% 30.11 in 6.2 mi NW 4.6 mph - N/A   Clear